#timestamp,LO_Frequency,Hit,StdDev 
1576659615.3,286007271.3,N
1576659635.1,286007271.9,N
1576659636.0,286007271.9,N
1576659655.8,286007269.7,N
1576659675.7,286007268.1,N
1576659695.5,286007270.7,N
1576659715.3,286007270.2,N
1576659735.2,286007272.3,N
1576659755.0,286007272.4,N
1576659755.9,286007272.4,N
1576659775.8,286007272.0,N
1576659795.6,286007271.3,N
1576659815.4,286007273.2,N
1576659835.3,286007271.7,N
1576659855.1,286007272.1,N
1576659875.8,286007280.3,N
1576659895.7,286007271.7,N
1576659915.5,286007272.1,N
1576659935.4,286007272.8,Y
1576659955.2,286046999.7,P
1576659975.0,286047000.1,N
1576659975.9,286047000.1,N
1576659995.8,286046999.8,N
1576660015.6,286046999.8,N
1576660035.4,286047002.6,N
1576660055.3,286047000.3,N
1576660075.1,286047002.1,N
1576660095.9,286047003.7,N
1576660115.7,286047003.8,N
1576660135.5,286047003.3,N
1576660155.4,286047001.8,N
1576660175.2,286047001.6,N
1576660195.0,286047002.5,N
1576660195.9,286047002.5,N
1576660215.8,286047004.0,N
1576660235.6,286047005.9,N
1576660255.5,286047002.9,N
1576660275.3,286047003.6,N
1576660295.1,286047003.7,N
1576660315.9,286047003.0,N
1576660335.7,286047006.0,N
1576660355.5,286047002.9,N
1576660375.4,286047003.6,N
1576660395.2,286047003.2,N
1576660415.1,286047001.7,N
1576660416.0,286047001.7,N
1576660435.8,286047003.2,N
1576660455.6,286047003.8,N
1576660475.5,286047005.2,N
1576660495.3,286047007.3,Y
1576660515.2,286047003.8,P
1576660535.9,286047001.3,N
1576660555.7,286047001.5,N
1576660575.6,286047001.7,N
1576660595.4,286047003.8,Y
1576660615.3,286047000.8,P
1576660635.1,286046996.6,P
1576660636.0,286046996.6,N
1576660655.8,286046999.3,N
1576660675.7,286046996.5,N
1576660695.5,286046998.7,N
1576660715.3,286046999.2,N
1576660735.2,286046998.8,N
1576660755.0,286047000.5,N
1576660755.9,286047000.5,N
1576660775.8,286047000.9,N
1576660795.6,286046998.1,N
1576660815.4,286047000.4,N
1576660835.3,286047001.1,N
1576660855.1,286047000.9,N
1576660875.9,286047001.1,N
1576660895.7,286046998.4,N
1576660915.5,286046998.9,N
1576660935.4,286046999.3,N
1576660955.2,286046999.1,N
1576660975.0,286046999.0,N
1576660975.9,286046999.0,N
1576660995.8,286046996.6,N
1576661015.6,286046998.0,N
1576661035.5,286046997.7,N
1576661055.3,286046995.5,N
1576661075.1,286046995.5,N
1576661095.9,286046995.7,N
1576661115.7,286046995.8,N
1576661135.5,286046998.0,N
1576661155.4,286046994.9,N
1576661175.2,286046993.3,Y
1576661195.1,286046995.8,P
1576661196.0,286046995.8,P
1576661215.8,286046995.0,P
1576661235.6,286046997.1,N
1576661255.5,286046999.3,N
1576661275.3,286046996.8,N
1576661295.1,286046999.2,N
1576661315.9,286046999.5,N
1576661335.7,286046997.1,N
1576661355.6,286046997.0,N
1576661375.4,286046999.5,N
1576661395.2,286046999.4,N
1576661415.1,286046996.7,N
1576661416.0,286046996.7,N
1576661435.8,286047001.0,N
1576661455.6,286047000.7,N
1576661475.5,286046998.5,N
1576661495.3,286046999.2,N
1576661515.1,286046998.3,N
1576661535.9,286046999.2,N
1576661555.7,286047000.8,N
1576661575.6,286046999.4,N
1576661595.4,286046998.9,N
1576661615.2,286046999.6,N
1576661635.1,286046999.3,N
1576661636.0,286046999.3,N
1576661655.8,286046999.6,N
1576661675.7,286046999.6,N
1576661695.5,286046997.0,N
1576661715.3,286046997.7,N
1576661735.2,286046996.5,N
1576661755.9,286046999.3,N
1576661775.7,286046999.3,N
1576661795.6,286046999.4,N
1576661815.4,286046998.3,N
1576661835.2,286046998.2,N
1576661855.1,286047000.5,N
1576661856.0,286047000.5,N
1576661875.8,286047002.5,N
1576661895.7,286046999.9,N
1576661915.5,286047001.3,N
1576661935.3,286047002.4,N
1576661955.2,286047001.4,N
1576661975.0,286047002.4,N
1576661975.9,286047002.4,N
1576661995.8,286047002.5,N
1576662015.6,286047000.6,N
1576662035.4,286047002.7,N
1576662055.3,286047002.1,N
1576662075.1,286047000.0,N
1576662095.8,286047000.6,N
1576662115.7,286047000.7,N
1576662135.5,286047000.9,N
1576662155.4,286046999.7,N
1576662175.2,286047000.6,N
1576662195.0,286047000.5,N
1576662195.9,286047000.5,N
1576662215.8,286047001.0,N
1576662235.6,286047000.3,N
1576662255.4,286047002.2,N
1576662275.3,286047002.1,N
1576662295.1,286047000.3,N
1576662315.9,286047000.3,N
1576662335.7,286047000.9,N
1576662355.5,286046998.1,N
1576662375.4,286047001.0,N
1576662395.2,286047000.0,N
1576662415.0,286047000.5,N
1576662415.9,286047000.5,N
1576662435.8,286047000.4,N
1576662455.6,286047002.7,N
1576662475.5,286046999.8,N
1576662495.3,286047000.5,N
1576662515.1,286047001.1,N
1576662535.9,286047000.5,N
1576662555.7,286046999.8,N
1576662575.5,286047002.4,N
1576662595.4,286047000.0,N
1576662615.2,286046999.7,N
1576662635.1,286047004.3,Y
1576662636.0,286047004.3,P
1576662655.8,286047001.8,N
1576662675.6,286047002.2,N
1576662695.5,286047002.2,N
1576662715.3,286047002.6,N
1576662735.2,286047002.2,N
1576662755.9,286046999.9,N
1576662775.7,286047002.7,N
1576662795.6,286047000.4,N
1576662815.4,286047000.5,N
1576662835.2,286047002.1,N
1576662855.1,286047001.9,N
1576662856.0,286047001.9,N
1576662875.8,286047002.3,N
1576662895.7,286047002.3,N
1576662915.5,286047003.9,Y
1576662935.3,286047002.8,P
1576662955.2,286047000.3,N
1576662975.0,286046998.6,N
1576662975.9,286046998.6,N
1576662995.8,286047001.0,N
1576663015.6,286047000.5,N
1576663035.4,286047000.3,N
1576663055.3,286047000.8,N
1576663075.1,286046999.0,N
1576663095.8,286047000.4,N
1576663115.7,286047000.8,N
1576663135.5,286046998.3,N
1576663155.4,286047000.6,N
1576663175.2,286047000.5,N
1576663195.0,286047000.3,N
1576663195.9,286047000.3,N
